Location: Dappach
(48.9767°N, 9.6998°E)
Time: 22:33:11
(UTC+00:00)

Cosmos 468 Rocket - Pass Details

Date: 23 May 2024
Orbit: 741 x 777 km, 74.0° (Epoch: 14 June)

Event Time Altitude Azimuth Distance (km) Brightness Sun altitude
Rises 00:40:08 0° 332° (NNW) 3,269 7.9 -18.0°
Reaches altitude 10° 00:42:35 10° 328° (NNW) 2,335 7.0 -17.9°
Maximum altitude 00:47:41 49° 254° (WSW) 992 4.3 -17.6°
Enters shadow 00:49:50 31° 199° (SSW) 1,333 4.7 -17.4°
